Simultaneous Nadir Overpasses (SNOs) Predictions

Prediction of SNOs between GOES-17 and TERRA Satellite Orbit:

Table of predicted SNOs for the next 14.0 days since TLE Epoch: 6/1/2024
Index Date Time (GOES-17) GOES-17 Lat,Lon TERRA Lat,Lon Distance(km) Time Diff (sec)
1 06/01/2024 16:33:05 0.01,-104.72 -0.78,-101.07 415.55 80
2 06/02/2024 04:53:08 -0.01,-104.71 -0.30,-105.94 140.57 80
3 06/04/2024 04:33:07 -0.01,-104.71 0.64,-101.76 335.85 80
4 06/04/2024 16:53:01 0.01,-104.72 0.43,-106.59 213.17 80
5 06/06/2024 16:38:19 0.01,-104.73 -0.47,-102.41 263.15 80
6 06/07/2024 04:58:24 -0.01,-104.72 -0.53,-107.30 292.80 80
7 06/09/2024 04:38:21 0.00,-104.72 0.34,-103.10 183.47 80
8 06/09/2024 17:00:56 -0.01,-104.73 0.66,-107.95 365.62 80
9 06/11/2024 16:40:53 -0.02,-104.74 -0.22,-103.76 111.21 80
10 06/12/2024 05:03:37 0.02,-104.73 -0.81,-108.64 444.23 80
11 06/14/2024 04:43:34 0.03,-104.74 0.11,-104.45 33.50 80
